TimeCST,TemperatureF,Dew PointF,Humidity,Sea Level PressureIn,VisibilityMPH,Wind Direction,Wind SpeedMPH,Gust SpeedMPH,PrecipitationIn,Events,Conditions,WindDirDegrees,DateUTC
12:15 AM,50.5,41.2,70,30.15,10.0,Calm,Calm,-,N/A,,Clear,0,2012-11-08 06:15:00
12:35 AM,49.5,39.7,69,30.15,10.0,ENE,4.6,-,N/A,,Clear,70,2012-11-08 06:35:00
12:55 AM,49.6,41.2,73,30.15,10.0,ENE,6.9,-,N/A,,Clear,70,2012-11-08 06:55:00
1:15 AM,48.6,40.3,73,30.15,10.0,East,8.1,-,N/A,,Clear,80,2012-11-08 07:15:00
1:35 AM,50.5,39.6,66,30.16,10.0,East,10.4,-,N/A,,Clear,90,2012-11-08 07:35:00
1:55 AM,50.0,39.9,68,30.16,5.0,East,9.2,-,N/A,,Haze,90,2012-11-08 07:55:00
2:15 AM,49.8,39.7,68,30.16,5.0,East,10.4,-,N/A,,Haze,90,2012-11-08 08:15:00
2:35 AM,48.6,39.9,72,30.17,5.0,East,8.1,-,N/A,,Haze,90,2012-11-08 08:35:00
2:55 AM,47.5,40.1,76,30.17,10.0,East,5.8,-,N/A,,Clear,100,2012-11-08 08:55:00
3:15 AM,47.3,40.1,76,30.17,10.0,East,5.8,-,N/A,,Clear,100,2012-11-08 09:15:00
3:35 AM,47.5,39.7,75,30.17,10.0,East,6.9,-,N/A,,Clear,90,2012-11-08 09:35:00
3:55 AM,47.3,39.4,74,30.17,10.0,East,5.8,-,N/A,,Clear,100,2012-11-08 09:55:00
4:15 AM,46.6,38.8,74,30.18,10.0,ESE,4.6,-,N/A,,Clear,110,2012-11-08 10:15:00
4:35 AM,46.4,39.2,76,30.18,7.0,East,5.8,-,N/A,,Clear,100,2012-11-08 10:35:00
4:55 AM,46.0,39.2,77,30.19,10.0,East,5.8,-,N/A,,Clear,90,2012-11-08 10:55:00
5:15 AM,45.7,39.2,78,30.19,7.0,East,5.8,-,N/A,,Clear,100,2012-11-08 11:15:00
5:35 AM,45.5,39.2,79,30.19,7.0,East,5.8,-,N/A,,Clear,100,2012-11-08 11:35:00
5:55 AM,45.7,39.4,79,30.19,2.5,East,6.9,-,N/A,,Haze,80,2012-11-08 11:55:00
6:15 AM,45.5,39.4,79,30.19,4.0,East,8.1,-,N/A,,Haze,90,2012-11-08 12:15:00
6:35 AM,46.0,38.8,76,30.20,7.0,East,5.8,-,N/A,,Clear,100,2012-11-08 12:35:00
6:55 AM,46.6,39.0,75,30.22,10.0,ESE,5.8,-,N/A,,Clear,110,2012-11-08 12:55:00
7:15 AM,47.7,39.4,73,30.23,7.0,East,5.8,-,N/A,,Clear,100,2012-11-08 13:15:00
7:35 AM,49.1,40.1,71,30.23,4.0,East,6.9,-,N/A,,Haze,100,2012-11-08 13:35:00
7:55 AM,50.9,40.3,67,30.24,7.0,East,9.2,-,N/A,,Clear,100,2012-11-08 13:55:00
8:15 AM,52.3,41.0,65,30.24,10.0,East,9.2,-,N/A,,Clear,100,2012-11-08 14:15:00
8:35 AM,54.1,41.7,63,30.25,10.0,ESE,9.2,-,N/A,,Clear,110,2012-11-08 14:35:00
8:55 AM,55.8,41.7,59,30.25,10.0,ESE,9.2,-,N/A,,Clear,110,2012-11-08 14:55:00
9:15 AM,57.2,41.5,56,30.26,10.0,ESE,10.4,-,N/A,,Clear,110,2012-11-08 15:15:00
9:35 AM,57.7,41.7,55,30.26,10.0,ESE,8.1,-,N/A,,Clear,120,2012-11-08 15:35:00
9:55 AM,59.0,42.3,54,30.26,10.0,SE,9.2,-,N/A,,Clear,130,2012-11-08 15:55:00
10:15 AM,60.3,42.1,51,30.26,10.0,ESE,6.9,-,N/A,,Clear,120,2012-11-08 16:15:00
10:35 AM,61.2,42.6,51,30.26,10.0,SE,4.6,-,N/A,,Clear,130,2012-11-08 16:35:00
10:55 AM,62.6,42.1,47,30.25,10.0,East,3.5,-,N/A,,Clear,100,2012-11-08 16:55:00
11:15 AM,63.1,42.1,46,30.25,10.0,SE,6.9,-,N/A,,Clear,130,2012-11-08 17:15:00
11:35 AM,64.2,42.3,45,30.23,5.0,ESE,6.9,-,N/A,,Haze,110,2012-11-08 17:35:00
11:55 AM,64.6,41.4,43,30.22,10.0,SE,4.6,-,N/A,,Clear,130,2012-11-08 17:55:00
12:15 PM,65.8,42.3,42,30.21,10.0,ESE,4.6,-,N/A,,Clear,110,2012-11-08 18:15:00
12:55 PM,67.1,42.6,41,30.18,10.0,East,5.8,-,N/A,,Clear,100,2012-11-08 18:55:00
1:15 PM,67.3,43.2,42,30.18,10.0,SE,6.9,-,N/A,,Clear,130,2012-11-08 19:15:00